Simultaneous Nadir Overpasses (SNOs) Predictions

Prediction of SNOs between AQUA and NPP Satellite Orbit:

Table of predicted SNOs for the next 14.0 days since TLE Epoch: 3/21/2015
Index Date (AQUA) Time (AQUA) Lat,Lon (AQUA) SZA (AQUA ) Date (NPP) Time (NPP) Lat,Lon (NPP) SZA (NPP ) Distance(km) Time Diff (sec)
1 03/24/2015 10:50:37 67.96,-117.74 104.60 03/24/2015 10:50:04 67.96,-117.76 104.64 0.94 33
2 03/24/2015 11:39:01 -71.48, 54.78 79.01 03/24/2015 11:39:44 -71.48, 54.77 79.05 0.59 43
3 03/27/2015 03:06:37 69.45, 0.02 102.02 03/27/2015 03:06:27 69.45, 0.01 102.03 0.31 10
4 03/27/2015 03:55:06 -72.65, 172.74 81.30 03/27/2015 03:56:12 -72.65, 172.77 81.38 0.99 66
5 03/29/2015 18:34:25 -66.91, -54.77 76.48 03/29/2015 18:33:23 -66.91, -54.77 76.41 0.07 62
6 03/29/2015 19:22:45 70.51, 117.40 99.89 03/29/2015 19:22:59 70.50, 117.37 99.88 1.13 14
7 04/01/2015 10:50:18 -68.78, 63.28 79.40 04/01/2015 10:49:40 -68.78, 63.31 79.37 1.07 38
8 04/01/2015 11:38:43 72.05,-124.21 97.23 04/01/2015 11:39:21 72.05,-124.17 97.18 1.46 38
9 04/04/2015 03:06:20 -70.09,-179.07 81.78 04/04/2015 03:06:07 -70.09,-179.05 81.77 0.77 13




NCC Satellite Simultaneous Nadir Overpasses (SNOs) Prediction Service
